Torna al catalogo

CZ-6A DEB

AttivoPO
NORAD 54626·DEBRIS·🇨🇳 China

Lanciato Nov 11, 2022 da Taiyuan Satellite Launch Center

Loading…

Prossimi Passaggi (prossime 24 ore)

TLE

AggiornatoSource: Space-Track

Epoca: Sep 14, 2026, 10:36 UTC

1 54626U 22151PC  26257.44221896  .00005132  00000-0  90198-3 0  9993
2 54626  98.6085 319.6556 0074255  25.1872 335.2922 14.66318775201865

Traccia CZ-6A DEB in tempo reale con AllMySat

Download on the App Store